SHT14G EGLL-EGJJ

Flight info

Callsign SHT14G
Flight time N/A
Altitude 21000
Route GASGU N866 SAM/N0367F200 N63 LELNA
Aircraft A20N/M-SDE2E3FGHIRWXY/LB1

Departure

Time 2026-05-05 14:42
Airport London Heathrow Airport (EGLL)

Arrival

Time N/A
Airport Jersey Airport (EGJJ)
Time Latitude Longitude Altitude Speed Heading
2026-05-05 14:00 51.47315 -0.48599 83 ft 0 kts 270°
2026-05-05 14:33 51.47315 -0.48580 83 ft 2 kts 270°
2026-05-05 14:33 51.47315 -0.48557 83 ft 1 kts 270°
2026-05-05 14:33 51.47315 -0.48541 83 ft 2 kts 263°
2026-05-05 14:33 51.47319 -0.48518 83 ft 2 kts 243°
2026-05-05 14:34 51.47327 -0.48499 83 ft 2 kts 225°
2026-05-05 14:34 51.47339 -0.48484 83 ft 2 kts 208°
2026-05-05 14:34 51.47353 -0.48476 83 ft 2 kts 191°
2026-05-05 14:34 51.47362 -0.48474 83 ft 1 kts 181°
2026-05-05 14:35 51.47353 -0.48475 83 ft 4 kts 181°
2026-05-05 14:35 51.47332 -0.48474 83 ft 0 kts 180°
2026-05-05 14:38 51.47331 -0.48474 83 ft 1 kts 180°
2026-05-05 14:38 51.47300 -0.48474 83 ft 7 kts 180°
2026-05-05 14:38 51.47235 -0.48474 83 ft 11 kts 180°
2026-05-05 14:38 51.47150 -0.48473 83 ft 12 kts 180°
2026-05-05 14:39 51.47055 -0.48472 83 ft 14 kts 179°
2026-05-05 14:39 51.46953 -0.48469 83 ft 15 kts 180°
2026-05-05 14:39 51.46854 -0.48469 83 ft 10 kts 181°
2026-05-05 14:39 51.46785 -0.48470 83 ft 10 kts 181°
2026-05-05 14:40 51.46710 -0.48469 83 ft 10 kts 179°
2026-05-05 14:40 51.46637 -0.48468 83 ft 6 kts 180°
2026-05-05 14:40 51.46585 -0.48469 83 ft 8 kts 180°
2026-05-05 14:40 51.46546 -0.48468 83 ft 6 kts 180°
2026-05-05 14:41 51.46488 -0.48467 83 ft 9 kts 170°
2026-05-05 14:41 51.46480 -0.48414 83 ft 7 kts 93°
2026-05-05 14:41 51.46479 -0.47959 83 ft 78 kts 90°
2026-05-05 14:41 51.46484 -0.46722 84 ft 141 kts 90°
2026-05-05 14:42 51.46490 -0.44926 298 ft 172 kts 88°
2026-05-05 14:42 51.46505 -0.43003 955 ft 176 kts 87°
2026-05-05 14:42 51.46409 -0.41055 1648 ft 184 kts 103°
2026-05-05 14:42 51.45703 -0.39233 2130 ft 207 kts 131°
2026-05-05 14:43 51.44593 -0.37558 2553 ft 232 kts 131°
2026-05-05 14:43 51.43586 -0.35473 3083 ft 249 kts 120°
2026-05-05 14:43 51.42392 -0.33322 3685 ft 271 kts 146°
2026-05-05 14:43 51.40603 -0.32503 4530 ft 280 kts 181°
2026-05-05 14:44 51.38757 -0.33358 5477 ft 282 kts 210°
2026-05-05 14:44 51.37150 -0.35135 6430 ft 283 kts 220°
2026-05-05 14:44 51.35686 -0.37170 7330 ft 286 kts 223°
2026-05-05 14:44 51.34216 -0.39328 8219 ft 290 kts 224°
2026-05-05 14:45 51.32744 -0.41484 9089 ft 293 kts 222°
2026-05-05 14:45 51.31154 -0.43505 9953 ft 295 kts 220°
2026-05-05 14:45 51.29786 -0.45953 10641 ft 302 kts 242°
2026-05-05 14:45 51.29110 -0.49181 11066 ft 317 kts 262°
2026-05-05 14:46 51.28760 -0.52753 11467 ft 335 kts 262°
2026-05-05 14:46 51.28295 -0.56461 11819 ft 354 kts 258°
2026-05-05 14:46 51.27657 -0.60319 12298 ft 367 kts 255°
2026-05-05 14:46 51.26917 -0.64250 13019 ft 371 kts 254°
2026-05-05 14:47 51.26149 -0.68187 13779 ft 374 kts 253°
2026-05-05 14:47 51.25380 -0.72115 14476 ft 378 kts 253°
2026-05-05 14:47 51.24593 -0.76128 15162 ft 382 kts 253°
2026-05-05 14:47 51.23803 -0.80153 15865 ft 385 kts 253°
2026-05-05 14:48 51.23008 -0.84200 16540 ft 388 kts 253°
2026-05-05 14:48 51.22191 -0.88351 17206 ft 391 kts 253°
2026-05-05 14:48 51.21334 -0.92421 17851 ft 394 kts 248°
2026-05-05 14:48 51.20052 -0.96302 18488 ft 398 kts 237°
2026-05-05 14:49 51.18341 -0.99721 19092 ft 402 kts 226°
2026-05-05 14:49 51.16339 -1.02866 19650 ft 405 kts 224°
2026-05-05 14:49 51.14292 -1.05959 19914 ft 407 kts 224°
2026-05-05 14:49 51.12257 -1.09027 20171 ft 408 kts 224°
2026-05-05 14:50 51.10191 -1.12160 20430 ft 409 kts 224°
2026-05-05 14:50 51.08168 -1.15243 20685 ft 410 kts 224°
2026-05-05 14:50 51.06105 -1.18393 20913 ft 411 kts 224°
2026-05-05 14:50 51.04060 -1.21518 20941 ft 411 kts 224°
2026-05-05 14:51 51.01997 -1.24666 20945 ft 411 kts 224°
2026-05-05 14:51 50.99939 -1.27806 20946 ft 412 kts 224°
2026-05-05 14:51 50.97875 -1.30931 20948 ft 411 kts 223°
2026-05-05 14:51 50.95681 -1.33790 20948 ft 412 kts 216°
2026-05-05 14:52 50.93290 -1.36275 20948 ft 412 kts 210°
2026-05-05 14:52 50.90752 -1.38410 20951 ft 412 kts 207°
2026-05-05 14:52 50.88178 -1.40452 20951 ft 411 kts 206°
2026-05-05 14:52 50.85644 -1.42447 20952 ft 411 kts 206°
2026-05-05 14:53 50.83091 -1.44461 20950 ft 411 kts 207°
2026-05-05 14:53 50.80546 -1.46477 20951 ft 411 kts 207°
2026-05-05 14:53 50.77990 -1.48507 20955 ft 411 kts 207°
2026-05-05 14:53 50.75433 -1.50538 20958 ft 411 kts 207°
2026-05-05 14:54 50.72883 -1.52562 20952 ft 411 kts 207°
2026-05-05 14:54 50.70369 -1.54554 20794 ft 410 kts 207°
2026-05-05 14:54 50.67827 -1.56564 20629 ft 409 kts 207°
2026-05-05 14:54 50.65286 -1.58569 20283 ft 406 kts 207°
2026-05-05 14:55 50.62777 -1.60550 20477 ft 408 kts 207°
2026-05-05 14:55 50.60223 -1.62563 20823 ft 414 kts 207°
2026-05-05 14:55 50.57640 -1.64597 20935 ft 413 kts 206°
2026-05-05 14:55 50.55073 -1.66616 20943 ft 413 kts 206°
2026-05-05 14:56 50.52507 -1.68630 20947 ft 412 kts 206°
2026-05-05 14:56 50.49954 -1.70632 20938 ft 412 kts 206°
2026-05-05 14:56 50.47427 -1.72611 20949 ft 412 kts 206°
2026-05-05 14:56 50.44864 -1.74615 20951 ft 412 kts 206°
2026-05-05 14:57 50.42286 -1.76629 20944 ft 412 kts 206°
2026-05-05 14:57 50.39748 -1.78610 20940 ft 412 kts 206°
2026-05-05 14:57 50.37186 -1.80608 20940 ft 412 kts 206°
2026-05-05 14:57 50.34615 -1.82610 20937 ft 413 kts 206°
2026-05-05 14:58 50.32055 -1.84601 20937 ft 413 kts 206°
2026-05-05 14:58 50.29487 -1.86595 20938 ft 413 kts 206°
2026-05-05 14:58 50.26931 -1.88578 20937 ft 414 kts 206°
2026-05-05 14:58 50.24348 -1.90578 20937 ft 414 kts 206°
2026-05-05 14:59 50.21787 -1.92560 20937 ft 414 kts 206°
2026-05-05 14:59 50.19212 -1.94549 20938 ft 415 kts 206°
2026-05-05 14:59 50.16631 -1.96543 20938 ft 415 kts 206°
2026-05-05 14:59 50.14048 -1.98534 20938 ft 414 kts 206°
2026-05-05 15:00 50.11486 -2.00508 20841 ft 410 kts 206°
2026-05-05 15:00 50.08951 -2.02458 20351 ft 407 kts 206°
2026-05-05 15:00 50.06420 -2.04402 19699 ft 406 kts 206°
2026-05-05 15:00 50.03900 -2.06334 19102 ft 403 kts 206°
2026-05-05 15:01 50.01427 -2.08230 18534 ft 401 kts 205°
2026-05-05 15:01 49.98882 -2.09975 17963 ft 397 kts 200°
2026-05-05 15:01 49.96261 -2.11320 17388 ft 395 kts 194°
2026-05-05 15:01 49.93631 -2.12300 16814 ft 392 kts 191°
2026-05-05 15:02 49.90984 -2.13197 16249 ft 390 kts 191°
2026-05-05 15:02 49.88300 -2.14094 15671 ft 388 kts 191°
2026-05-05 15:02 49.85705 -2.14966 15113 ft 386 kts 191°
2026-05-05 15:02 49.83090 -2.15850 14591 ft 383 kts 191°
2026-05-05 15:03 49.80511 -2.16725 14055 ft 380 kts 191°
2026-05-05 15:03 49.77936 -2.17601 13533 ft 376 kts 191°
2026-05-05 15:03 49.75449 -2.18447 13310 ft 364 kts 191°
2026-05-05 15:03 49.73013 -2.19276 13105 ft 353 kts 191°
2026-05-05 15:04 49.70657 -2.20108 12902 ft 342 kts 193°
2026-05-05 15:04 49.68383 -2.21065 12709 ft 332 kts 194°
2026-05-05 15:04 49.66208 -2.21995 12527 ft 322 kts 194°
2026-05-05 15:04 49.64073 -2.22909 12336 ft 313 kts 194°
2026-05-05 15:05 49.59925 -2.24678 11630 ft 308 kts 194°
2026-05-05 15:05 49.57872 -2.25552 11255 ft 307 kts 195°
2026-05-05 15:05 49.55829 -2.26418 10902 ft 305 kts 195°
2026-05-05 15:06 49.53817 -2.27274 10535 ft 303 kts 195°
2026-05-05 15:06 49.51768 -2.28146 10163 ft 302 kts 194°
2026-05-05 15:06 49.49767 -2.28996 9778 ft 301 kts 194°
2026-05-05 15:06 49.47745 -2.29854 9406 ft 300 kts 194°
2026-05-05 15:07 49.45751 -2.30696 9014 ft 300 kts 195°
2026-05-05 15:07 49.43743 -2.31545 8621 ft 300 kts 195°
2026-05-05 15:07 49.41730 -2.32395 8229 ft 299 kts 195°
2026-05-05 15:07 49.39740 -2.33236 7863 ft 296 kts 195°
2026-05-05 15:08 49.37819 -2.34047 7608 ft 282 kts 195°
2026-05-05 15:08 49.35962 -2.34829 7329 ft 270 kts 196°
2026-05-05 15:08 49.34192 -2.35575 7040 ft 258 kts 195°
2026-05-05 15:08 49.32511 -2.36284 6681 ft 251 kts 195°
2026-05-05 15:09 49.30893 -2.37201 6162 ft 249 kts 218°
2026-05-05 15:09 49.29824 -2.39194 5628 ft 241 kts 250°
2026-05-05 15:09 49.29139 -2.41491 5362 ft 236 kts 241°
2026-05-05 15:09 49.27938 -2.43106 5159 ft 233 kts 198°
2026-05-05 15:10 49.26397 -2.43290 5095 ft 213 kts 166°
2026-05-05 15:10 49.25114 -2.42381 4820 ft 200 kts 136°
2026-05-05 15:10 49.24122 -2.40962 4390 ft 198 kts 129°
2026-05-05 15:10 49.23154 -2.39433 3911 ft 199 kts 128°
2026-05-05 15:11 49.22206 -2.37946 3482 ft 196 kts 129°
2026-05-05 15:11 49.21250 -2.36481 3009 ft 194 kts 129°
2026-05-05 15:11 49.20293 -2.35031 2490 ft 195 kts 130°
2026-05-05 15:11 49.19490 -2.33459 2008 ft 185 kts 105°
2026-05-05 15:12 49.19441 -2.31650 1735 ft 162 kts 75°
2026-05-05 15:12 49.19694 -2.30056 1512 ft 146 kts 72°
2026-05-05 15:12 49.19928 -2.28634 1289 ft 132 kts 70°
2026-05-05 15:12 49.20134 -2.27287 1105 ft 130 kts 77°
2026-05-05 15:13 49.20262 -2.25425 850 ft 133 kts 76°
2026-05-05 15:13 49.20353 -2.24488 776 ft 133 kts 75°
2026-05-05 15:13 49.20486 -2.23085 610 ft 135 kts 75°
2026-05-05 15:13 49.20615 -2.21693 467 ft 132 kts 78°
2026-05-05 15:14 49.20729 -2.20286 458 ft 137 kts 80°
2026-05-05 15:14 49.20834 -2.18936 1025 ft 143 kts 76°
2026-05-05 15:14 49.20961 -2.17454 1819 ft 142 kts 75°
2026-05-05 15:14 49.21090 -2.16009 2503 ft 140 kts 76°
2026-05-05 15:15 49.21231 -2.14481 2901 ft 157 kts 76°
2026-05-05 15:15 49.21356 -2.12616 3005 ft 199 kts 88°
2026-05-05 15:15 49.20789 -2.10576 2913 ft 228 kts 132°
2026-05-05 15:15 49.19340 -2.09494 2960 ft 241 kts 173°
2026-05-05 15:16 49.17654 -2.09586 2990 ft 243 kts 182°
2026-05-05 15:16 49.15971 -2.09737 2993 ft 242 kts 181°
2026-05-05 15:16 49.14283 -2.10009 2983 ft 244 kts 197°
2026-05-05 15:16 49.12849 -2.11313 2989 ft 247 kts 229°
2026-05-05 15:17 49.12034 -2.13573 2998 ft 242 kts 261°
2026-05-05 15:17 49.11785 -2.16066 3001 ft 239 kts 269°
2026-05-05 15:17 49.11668 -2.18594 2999 ft 238 kts 271°
2026-05-05 15:17 49.11577 -2.21120 2995 ft 237 kts 271°
2026-05-05 15:18 49.11494 -2.23634 2994 ft 237 kts 272°
2026-05-05 15:18 49.11412 -2.26130 2996 ft 238 kts 272°
2026-05-05 15:18 49.11326 -2.28654 2997 ft 238 kts 272°
2026-05-05 15:18 49.11238 -2.31173 2995 ft 237 kts 271°
2026-05-05 15:19 49.11149 -2.33666 2998 ft 237 kts 271°
2026-05-05 15:19 49.11186 -2.36085 2974 ft 219 kts 291°
2026-05-05 15:19 49.11908 -2.37963 2840 ft 197 kts 327°
2026-05-05 15:19 49.13089 -2.38709 2701 ft 180 kts 358°
2026-05-05 15:20 49.14296 -2.38735 2594 ft 169 kts
2026-05-05 15:20 49.15465 -2.38633 2489 ft 168 kts
2026-05-05 15:20 49.16592 -2.38254 2370 ft 167 kts 32°
2026-05-05 15:20 49.17480 -2.37131 2293 ft 167 kts 42°
2026-05-05 15:21 49.18322 -2.35908 2291 ft 163 kts 42°
2026-05-05 15:21 49.19117 -2.34776 2137 ft 154 kts 44°
2026-05-05 15:21 49.19612 -2.33352 1907 ft 153 kts 71°
2026-05-05 15:21 49.19794 -2.31774 1727 ft 144 kts 78°
2026-05-05 15:22 49.19901 -2.30327 1530 ft 132 kts 78°
2026-05-05 15:22 49.20009 -2.28930 1353 ft 132 kts 76°
2026-05-05 15:22 49.20125 -2.27546 1203 ft 133 kts 78°
2026-05-05 15:22 49.20242 -2.26133 1022 ft 133 kts 78°
2026-05-05 15:23 49.20356 -2.24757 832 ft 135 kts 77°
2026-05-05 15:23 49.20477 -2.23304 659 ft 136 kts 76°
2026-05-05 15:23 49.20591 -2.21931 459 ft 131 kts 76°
2026-05-05 15:23 49.20729 -2.20429 825 ft 147 kts 78°
2026-05-05 15:24 49.20852 -2.18960 1691 ft 141 kts 78°
2026-05-05 15:24 49.20978 -2.17468 2381 ft 148 kts 77°
2026-05-05 15:24 49.21125 -2.15855 2844 ft 165 kts 75°
2026-05-05 15:24 49.21623 -2.14144 3014 ft 192 kts 45°
2026-05-05 15:25 49.22694 -2.12842 2962 ft 201 kts 33°
2026-05-05 15:25 49.23893 -2.11720 2978 ft 202 kts 23°
2026-05-05 15:25 49.25261 -2.11411 2998 ft 205 kts 357°
2026-05-05 15:25 49.26673 -2.11735 3003 ft 205 kts 352°
2026-05-05 15:26 49.28073 -2.12177 3005 ft 206 kts 351°
2026-05-05 15:26 49.29480 -2.12649 3006 ft 206 kts 351°
2026-05-05 15:26 49.30887 -2.13125 3008 ft 206 kts 351°
2026-05-05 15:26 49.32291 -2.13600 3115 ft 212 kts 351°
2026-05-05 15:27 49.33742 -2.14095 3870 ft 216 kts 351°
2026-05-05 15:27 49.35158 -2.14579 4893 ft 213 kts 351°
2026-05-05 15:27 49.36594 -2.15064 5811 ft 215 kts 351°
2026-05-05 15:27 49.38040 -2.15543 6695 ft 217 kts 351°
2026-05-05 15:28 49.39510 -2.16023 7557 ft 220 kts 351°
2026-05-05 15:28 49.40997 -2.16501 8345 ft 225 kts 351°
2026-05-05 15:28 49.42538 -2.16991 9138 ft 230 kts 351°
2026-05-05 15:28 49.44104 -2.17487 9917 ft 234 kts 351°
2026-05-05 15:29 49.45705 -2.17717 10658 ft 236 kts
2026-05-05 15:29 49.47334 -2.17331 11374 ft 242 kts 12°
2026-05-05 15:29 49.49040 -2.16807 11823 ft 258 kts 13°
2026-05-05 15:29 49.50854 -2.16270 12233 ft 276 kts 12°
2026-05-05 15:30 49.52806 -2.15727 12616 ft 294 kts 11°
2026-05-05 15:30 49.54879 -2.15178 12988 ft 313 kts 11°
2026-05-05 15:30 49.57091 -2.14622 13356 ft 331 kts 11°
2026-05-05 15:30 49.59391 -2.14056 13699 ft 348 kts 11°
2026-05-05 15:31 49.61826 -2.13460 14267 ft 357 kts 11°
2026-05-05 15:31 49.64300 -2.12853 14754 ft 360 kts 11°
2026-05-05 15:31 49.66769 -2.12247 14937 ft 361 kts 11°
2026-05-05 15:31 49.69223 -2.11644 14939 ft 360 kts 11°
2026-05-05 15:32 49.71698 -2.11035 14942 ft 360 kts 11°
2026-05-05 15:32 49.74163 -2.10427 14944 ft 360 kts 11°
2026-05-05 15:32 49.76625 -2.09818 14952 ft 360 kts 11°
2026-05-05 15:32 49.79096 -2.09207 14949 ft 360 kts 11°
2026-05-05 15:33 49.81576 -2.08592 14944 ft 360 kts 11°
2026-05-05 15:33 49.84030 -2.07984 14953 ft 360 kts 11°
2026-05-05 15:33 49.86493 -2.07372 14959 ft 360 kts 11°
2026-05-05 15:33 49.88977 -2.06755 14950 ft 361 kts 11°
2026-05-05 15:34 49.91434 -2.06144 14941 ft 361 kts 11°
2026-05-05 15:34 49.93931 -2.05522 14936 ft 362 kts 11°
2026-05-05 15:34 49.96393 -2.04908 14947 ft 362 kts 11°
2026-05-05 15:34 49.98890 -2.04398 14939 ft 363 kts
2026-05-05 15:35 50.01432 -2.04274 14937 ft 364 kts
2026-05-05 15:35 50.03948 -2.04245 14938 ft 363 kts
2026-05-05 15:35 50.07299 -2.04196 14849 ft 356 kts
2026-05-05 15:35 50.08908 -2.04162 14721 ft 349 kts
2026-05-05 15:36 50.11299 -2.04101 14516 ft 337 kts
2026-05-05 15:36 50.13611 -2.04033 14319 ft 326 kts
2026-05-05 15:36 50.15840 -2.03961 14126 ft 316 kts
2026-05-05 15:36 50.17977 -2.03887 13938 ft 306 kts
2026-05-05 15:37 50.20067 -2.03812 13727 ft 297 kts
2026-05-05 15:37 50.22133 -2.03737 13379 ft 294 kts
2026-05-05 15:37 50.24159 -2.03662 12988 ft 293 kts
2026-05-05 15:37 50.26194 -2.03586 12603 ft 291 kts
2026-05-05 15:38 50.28214 -2.03510 12222 ft 290 kts
2026-05-05 15:38 50.30209 -2.03436 11853 ft 288 kts
2026-05-05 15:38 50.32185 -2.03362 11483 ft 286 kts
2026-05-05 15:38 50.34172 -2.03288 11108 ft 284 kts
2026-05-05 15:39 50.36128 -2.03216 10746 ft 282 kts
2026-05-05 15:39 50.38075 -2.03144 10381 ft 280 kts
2026-05-05 15:39 50.39999 -2.03073 10000 ft 278 kts
2026-05-05 15:39 50.41936 -2.03001 9627 ft 277 kts
2026-05-05 15:40 50.43850 -2.02931 9260 ft 275 kts
2026-05-05 15:40 50.45731 -2.02862 8760 ft 270 kts
2026-05-05 15:40 50.47592 -2.02794 8069 ft 268 kts
2026-05-05 15:40 50.49437 -2.02727 7392 ft 265 kts
2026-05-05 15:41 50.51253 -2.02659 6715 ft 262 kts
2026-05-05 15:41 50.53054 -2.02592 6040 ft 258 kts
2026-05-05 15:41 50.54810 -2.02527 5381 ft 255 kts
2026-05-05 15:41 50.56575 -2.02461 4713 ft 252 kts
2026-05-05 15:42 50.58309 -2.02397 4044 ft 249 kts
2026-05-05 15:42 50.59999 -2.02333 3415 ft 245 kts
2026-05-05 15:42 50.61667 -2.02271 2996 ft 232 kts
2026-05-05 15:42 50.63202 -2.02215 3025 ft 216 kts
2026-05-05 15:43 50.64621 -2.02165 3064 ft 189 kts
2026-05-05 15:43 50.65814 -2.02124 3214 ft 158 kts
2026-05-05 15:43 50.66940 -2.02080 3112 ft 169 kts
2026-05-05 15:43 50.68124 -2.02032 2942 ft 172 kts
2026-05-05 15:44 50.69326 -2.01984 2761 ft 171 kts
2026-05-05 15:44 50.70519 -2.01939 2587 ft 171 kts
2026-05-05 15:44 50.71694 -2.01894 2417 ft 170 kts
2026-05-05 15:44 50.72875 -2.01849 2239 ft 169 kts
2026-05-05 15:45 50.74047 -2.01702 2047 ft 169 kts 17°
2026-05-05 15:45 50.74927 -2.00604 1872 ft 163 kts 51°
2026-05-05 15:45 50.75422 -1.99055 1760 ft 151 kts 63°
2026-05-05 15:45 50.75762 -1.97537 1623 ft 144 kts 65°
2026-05-05 15:46 50.76054 -1.96029 1442 ft 142 kts 69°
2026-05-05 15:46 50.76299 -1.94569 1234 ft 137 kts 70°
2026-05-05 15:46 50.76536 -1.93112 1052 ft 136 kts 71°
2026-05-05 15:46 50.76775 -1.91670 893 ft 136 kts 72°
2026-05-05 15:47 50.77007 -1.90219 712 ft 136 kts 72°
2026-05-05 15:47 50.77243 -1.88788 509 ft 135 kts 72°
2026-05-05 15:47 50.77488 -1.87366 349 ft 135 kts 73°
2026-05-05 15:47 50.77729 -1.85929 164 ft 134 kts 74°
2026-05-05 15:48 50.77965 -1.84532 44 ft 129 kts 76°
2026-05-05 15:48 50.78128 -1.83541 43 ft 49 kts 76°
2026-05-05 15:48 50.78182 -1.83203 43 ft 20 kts 76°
2026-05-05 15:48 50.78200 -1.83068 43 ft 6 kts 111°
2026-05-05 15:49 50.78148 -1.83045 43 ft 9 kts 194°
2026-05-05 15:49 50.78108 -1.83131 43 ft 12 kts 240°
2026-05-05 15:49 50.78059 -1.83247 43 ft 13 kts 242°
2026-05-05 15:49 50.78016 -1.83382 43 ft 14 kts 243°
2026-05-05 15:50 50.77965 -1.83485 43 ft 11 kts 211°
2026-05-05 15:50 50.77912 -1.83492 43 ft 4 kts 168°
2026-05-05 15:50 50.77884 -1.83479 43 ft 2 kts 124°
2026-05-05 15:50 50.77884 -1.83410 43 ft 6 kts 86°
2026-05-05 15:51 50.77884 -1.83387 43 ft 0 kts 86°